Regional Weather Roundup
Issued by NWS

Home | Current Version | Previous Version | Graphics & Text | Print | Product List | Glossary On
Versions: 1 2 3 4 5 6 7 8 9 10 11 12 13 14 15 16 17 18 19 20 21 22 23 24 25 26 27 28 29 30 31 32 33 34 35 36 37 38 39 40 41 42 43 44 45 46 47 48 49 50
000
ASUS43 KOAX 291810
RWRNE

WEATHER ROUNDUP FOR NEBRASKA
NATIONAL WEATHER SERVICE OMAHA NE
100 PM CDT FRI JUL 29 2016

NOTES: SATELLITE DATA IS BEING USED TO AUGMENT CLOUD COVER ABOVE
       12000 FEET.
       "FAIR" INDICATES FEW OR NO CLOUDS BELOW 12,000 FEET WITH NO
       SIGNIFICANT WEATHER AND/OR OBSTRUCTIONS TO VISIBILITY.

  * THESE STATIONS DO NOT REPORT WEATHER SUCH AS RAIN...SNOW OR FOG.

NEZ001>004-019>022-054>056-291900-
NEBRASKA PANHANDLE

CITY           SKY/WX    TMP DP  RH WIND       PRES   REMARKS
SCOTTSBLUFF    SUNNY     82  59  45 E12       30.13F
6HR MIN TEMP:  59; 6HR MAX TEMP:  82;

ALLIANCE       MOSUNNY   78  56  46 VRB7      30.13F
6HR MIN TEMP:  51; 6HR MAX TEMP:  78;

CHADRON        SUNNY     81  57  43 CALM      30.09F
6HR MIN TEMP:  55; 6HR MAX TEMP:  82;

KIMBALL        MOSUNNY   77  57  50 SE6       30.19F
SIDNEY         PTSUNNY   78  58  49 VRB7      30.18F
6HR MIN TEMP:  55; 6HR MAX TEMP:  80;

$$

NEZ057>060-069>072-079>082-291900-
SOUTHWEST NEBRASKA

CITY           SKY/WX    TMP DP  RH WIND       PRES   REMARKS
NORTH PLATTE   SUNNY     77  63  61 W6        30.12F
6HR MIN TEMP:  60; 6HR MAX TEMP:  78;

IMPERIAL       CLOUDY    75  61  61 SW8       30.15S
6HR MIN TEMP:  60; 6HR MAX TEMP:  75;

LEXINGTON      PTSUNNY   77  64  63 SW3       30.11F
MCCOOK         PTSUNNY   79  61  53 CALM      30.12F
6HR MIN TEMP:  58; 6HR MAX TEMP:  79;

OGALLALA       MOSUNNY   78  60  54 CALM      30.14F
$$

NEZ005>010-023>029-035>040-094-291900-
NORTH CENTRAL NEBRASKA

CITY           SKY/WX    TMP DP  RH WIND       PRES   REMARKS
VALENTINE      CLOUDY    74  58  57 S8        30.13F
6HR MIN TEMP:  61; 6HR MAX TEMP:  75;

AINSWORTH      MOSUNNY   71  63  76 CALM      30.14S
BROKEN BOW     CLOUDY    71  65  81 E8        30.13F
6HR MIN TEMP:  59; 6HR MAX TEMP:  71;

O`NEILL        MOSUNNY   74  57  55 E7        30.13S
ORD            CLOUDY    70  61  73 SE3       30.11S
6HR MIN TEMP:  65; 6HR MAX TEMP:  71; 6HR PCP:  0.02;

THEDFORD       PTSUNNY   75  61  62 E7        30.14F
$$

NEZ041-046>049-061>064-073>077-083>087-291900-
SOUTH CENTRAL NEBRASKA

CITY           SKY/WX    TMP DP  RH WIND       PRES   REMARKS
GRAND ISLAND   MOSUNNY   76  62  62 NE6       30.10S
6HR MIN TEMP:  64; 6HR MAX TEMP:  76; 6HR PCP: TRACE;

AURORA         PTSUNNY   78  63  60 NE5       30.08F
HASTINGS       PTSUNNY   77  63  61 N6        30.10S
6HR MIN TEMP:  66; 6HR MAX TEMP:  80;

HEBRON         PTSUNNY   81  61  51 CALM      30.06S
HOLDREGE       PTSUNNY   76  61  60 W5        30.10F
KEARNEY *      PTSUNNY   70  66  88 N10       30.12R
YORK           MOSUNNY   73  66  78 NE7       30.09S
$$

NEZ011>018-030>034-042>045-291900-
NORTHEAST NEBRASKA

CITY           SKY/WX    TMP DP  RH WIND       PRES   REMARKS
NORFOLK        PTSUNNY   76  53  44 N7        30.09S
6HR MIN TEMP:  65; 6HR MAX TEMP:  77;

ALBION         PTSUNNY   76  61  61 NE3       30.10S
BLAIR          PTSUNNY   76  61  58 NW9       30.05F
FREMONT        SUNNY     78  57  49 N3        30.06F
TEKAMAH        MOSUNNY   79  61  53 N8        30.05F
6HR MIN TEMP:  65; 6HR MAX TEMP:  79;

WAYNE          MOSUNNY   76  60  59 N6        30.09F
$$

NEZ050>053-065>068-078-088>093-291900-
SOUTHEAST NEBRASKA

CITY           SKY/WX    TMP DP  RH WIND       PRES   REMARKS
LINCOLN        PTSUNNY   77  66  68 NW6       30.07F
6HR MIN TEMP:  68; 6HR MAX TEMP:  78; 6HR PCP:  0.14;

OMAHA EPPLEY   MOSUNNY   77  62  59 N8        30.04F
6HR MIN TEMP:  67; 6HR MAX TEMP:  79;

BEATRICE       MOSUNNY   79  63  57 NE3       30.06S
FALLS CITY     MOSUNNY   81  65  58 NE6       30.03S
6HR MIN TEMP:  67; 6HR MAX TEMP:  82; 6HR PCP:  0.02;

NEBRASKA CITY  MOSUNNY   74  61  62 N5        30.06R
PLATTSMOUTH    MOSUNNY   76  62  61 N3        30.05F
$$

NEZ044-045-051>053-067-291900-
OMAHA AREA

CITY           SKY/WX    TMP DP  RH WIND       PRES   REMARKS
OMAHA EPPLEY   MOSUNNY   77  62  59 N8        30.04F
6HR MIN TEMP:  67; 6HR MAX TEMP:  79;

BLAIR          PTSUNNY   76  61  58 NW9       30.05F
FREMONT        SUNNY     78  57  49 N3        30.06F
MILLARD        MOSUNNY   78  60  53 NW3       30.04F
OFFUTT AFB     MOSUNNY   79  61  54 N6        30.04F
PLATTSMOUTH    MOSUNNY   76  62  61 N3        30.05F
WAHOO          FAIR      76  61  59 NW5       30.06F
$$



USA.gov is the U.S. government's official web portal to all federal, state and local government web resources and services.